Location: Alexander
(41.3564°N, 81.5960°W)
Time: 09:37:47
(UTC+00:00)

Cosmos 1626 Rocket - Pass Details

Date: 24 January 2021
Orbit: 603 x 631 km, 82.5° (Epoch: 02 March)

Event Time Altitude Azimuth Distance (km) Brightness Sun altitude
Rises 23:41:29 0° 187° (S) 2,867 7.3 -12.9°
Reaches altitude 10° 23:43:41 10° 188° (S) 1,972 6.4 -13.3°
Maximum altitude 23:48:04 86° 276° (W) 628 3.6 -14.1°
Drops below altitude 10° 23:52:31 10° 7° (N) 2,005 6.0 -14.9°
Sets 23:54:46 0° 8° (N) 2,920 6.8 -15.3°
